Presure
203 197 190 194 205 203 142 136 133 137 138 134 132 125 107 138 129 130 146 119 119 121 164 135 131 147 141 135 145 227 169 131 219 154 203 175 186 198 198 180 187 198 182 146
224 216 197 204 206 206 203 199 158 138 145 137 137 142 134 132 137 134 134 132 122 115 115 123 127 130 131 141 129 214 142 196 219 153 88 149 174 189 209 199 193 219 166 198
228 205 229 228 215 198 203 209 202 200 207 136 194 134 141 144 129 130 142 123 123 125 124 116 129 128 123 157 127 213 155 196 162 84 184 194 185 197 173 126 169 185 203 191
263 240 246 209 224 226 224 221 219 208 200 209 201 208 204 140 135 130 127 139 123 119 117 124 129 122 123 136 132 196 135 187 145 199 210 204 202 206 199 169 194 182 182 195
244 243 241 248 244 248 247 219 230 229 228 206 204 212 195 205 143 204 205 124 129 131 103 117 123 120 121 127 130 133 122 204 148 183 188 141 199 192 204 203 193 177 165 165
240 212 214 243 240 250 252 243 241 231 237 228 223 229 233 218 196 217 240 236 140 175 131 122 122 127 124 126 161 172 181 173 186 194 194 182 196 191 197 179 163 216 181 204
270 264 241 236 242 211 231 223 252 257 243 241 234 231 226 227 221 228 229 231 234 238 200 219 133 125 124 124 131 169 192 160 191 182 180 184 218 181 185 181 202 178 170 191
255 271 259 240 238 233 233 233 227 244 255 256 249 239 241 239 236 227 223 225 222 223 229 222 212 286 239 210 203 142 192 139 192 185 182 187 177 148 190 198 192 183 197 172
280 271 242 262 260 236 234 235 238 239 234 226 244 251 252 260 254 248 224 229 248 247 223 232 212 232 256 239 206 201 202 187 186 206 189 185 172 84 136 127 103 102 178 172
286 266 269 261 253 255 249 237 233 238 239 243 232 210 222 230 229 244 251 249 245 252 250 213 215 219 227 247 238 205 195 209 195 179 167 188 182 192 176 190 181 192 195 181
284 286 273 261 263 249 250 253 248 243 244 245 245 249 244 238 236 236 231 241 246 246 247 247 217 211 221 264 248 217 223 194 192 189 191 188 195 169 169 188 189 182 188 185
305 302 296 281 260 265 255 251 252 251 245 243 243 250 239 246 246 233 238 226 235 236 253 238 255 210 218 257 280 236 215 211 198 191 158 194 177 197 150 185 187 184 173 185
309 290 306 300 261 269 272 264 254 256 256 256 252 243 236 252 255 250 233 238 231 232 245 255 243 241 218 210 255 247 214 217 206 204 188 206 204 192 190 182 200 195 193 197
325 335 91 196 303 293 278 276 279 275 272 270 271 262 255 261 260 254 241 241 244 254 235 248 250 271 242 207 253 224 236 202 208 214 215 213 204 200 204 187 175 201 223 182
316 300 307 332 343 328 302 275 286 285 293 294 286 285 267 268 271 266 264 257 241 253 243 240 252 246 258 219 214 218 216 213 199 215 201 213 225 200 205 195 150 211 186 193
457 421 400 325 299 294 315 333 320 302 280 282 296 306 274 272 272 274 274 272 267 246 265 253 258 263 259 265 231 232 226 220 210 214 206 215 205 204 206 196 204 190 193 191
438 450 467 480 459 399 327 297 120 303 319 328 326 326 324 295 277 269 264 271 276 263 274 262 246 251 263 273 260 231 218 244 230 214 216 214 213 202 205 198 188 191 190 179
444 442 437 443 456 458 488 260 471 319 84 262 238 320 335 328 309 291 293 159 269 264 269 277 260 249 250 264 257 254 234 221 245 245 226 223 213 213 204 212 208 200 193 150
413 415 426 429 442 466 437 457 443 474 498 410 323 320 290 315 328 331 317 304 287 271 282 288 271 250 246 254 245 260 254 230 230 237 246 234 222 126 202 211 217 222 208 200
386 381 388 385 397 396 399 399 414 403 480 439 433 502 386 342 299 300 102 316 322 320 325 321 295 277 290 283 263 247 260 240 217 235 227 241 236 237 223 216 196 195 214 202
359 357 352 352 352 350 357 364 380 388 380 382 409 446 88 362 416 273 275 283 298 309 325 327 308 289 283 288 269 277 251 257 251 226 243 234 223 224 218 206 228 219 218 221
330 322 320 334 336 331 323 342 355 284 343 362 365 399 425 455 502 260 308 154 226 98 312 321 315 293 275 291 280 273 261 253 268 268 228 229 242 231 230 240 231 224 223 215
307 323 319 321 327 327 329 331 346 346 348 374 401 403 416 430 464 480 540 328 305 283 296 119 307 281 292 290 265 271 261 251 251 256 267 262 226 227 236 242 228 234 247 210
298 306 328 346 363 366 363 371 367 367 369 366 417 399 428 120 495 479 443 394 320 284 285 300 308 314 137 288 270 273 274 244 272 270 265 262 268 270 225 239 236 125 233 228
324 315 313 299 315 319 339 354 342 338 339 333 359 81 304 457 490 462 412 180 347 276 283 293 306 310 302 293 294 291 288 267 266 275 269 259 264 254 256 272 230 227 226 221
302 302 295 288 299 307 294 313 319 319 325 317 321 285 90 415 406 378 397 391 378 296 285 279 278 282 286 294 291 291 281 261 284 270 267 266 263 254 263 263 262 265 257 235
Wind_Speed
76 71 73 81 76 72 77 72 72 75 67 67 70 62 56 60 63 60 61 55 55 48 52 55 55 66 52 44 52 68 54 47 68 36 70 58 71 66 65 68 63 54 61 59
84 81 83 82 80 79 79 77 79 72 75 72 74 78 68 61 66 66 64 62 60 53 56 51 57 59 51 56 46 69 45 63 91 47 36 40 55 69 60 65 61 67 66 67
86 81 88 89 86 81 85 84 83 79 81 75 76 77 76 71 66 66 70 63 63 60 62 54 62 61 55 50 48 78 47 63 51 40 64 71 55 71 58 49 56 58 63 61
87 93 90 87 88 93 89 90 90 88 83 83 81 78 81 73 70 70 66 72 67 63 62 63 67 58 59 57 60 72 51 65 50 74 68 82 75 75 70 53 68 58 58 63
80 85 85 80 89 88 86 93 91 93 91 86 85 83 81 85 75 77 73 72 74 73 62 62 68 61 60 63 63 60 50 84 54 68 76 45 70 70 72 73 71 59 56 61
85 86 82 84 86 86 86 90 94 96 93 89 88 87 78 85 85 77 69 67 73 64 76 72 70 73 67 66 66 70 67 70 74 80 85 71 81 74 57 60 54 63 63 64
78 85 89 90 91 89 89 91 89 90 92 88 90 86 81 82 83 82 76 68 62 53 55 51 82 77 69 68 69 72 89 67 93 84 73 81 77 64 78 72 60 76 63 67
81 79 88 94 94 98 96 93 92 88 84 83 92 88 87 84 82 80 83 76 70 62 55 54 52 48 89 94 98 74 99 66 102 93 86 96 74 52 71 85 80 90 75 71
87 78 92 92 97 100 99 95 96 96 89 84 79 75 72 73 76 82 85 83 76 66 63 56 59 53 74 98 106 103 109 99 100 109 101 86 70 40 65 61 46 43 89 78
91 80 87 90 92 96 102 102 102 102 94 92 83 84 78 79 76 73 73 75 73 67 65 67 65 63 59 79 104 120 109 109 114 88 72 102 93 85 79 92 90 95 94 91
93 91 88 90 94 95 98 104 106 106 103 99 86 85 83 83 79 77 76 75 73 71 66 68 70 72 69 61 101 123 109 117 116 108 111 107 110 67 77 103 101 93 99 94
94 97 93 95 95 100 103 105 107 108 106 98 90 90 85 84 83 78 79 79 76 74 71 70 68 79 76 72 62 111 122 119 118 114 79 121 80 115 60 97 108 102 85 106
96 93 91 92 95 104 109 112 106 108 106 106 99 84 83 89 89 85 80 79 79 78 75 71 72 77 81 80 82 106 111 120 129 130 107 125 125 115 111 96 117 113 111 108
94 96 17 55 99 108 107 106 111 111 108 106 101 88 95 95 94 89 81 79 79 81 80 75 69 70 82 88 84 105 107 101 118 132 130 131 128 115 124 101 79 113 101 91
97 93 91 92 98 102 105 100 111 110 110 107 96 89 86 91 91 90 90 90 82 84 84 81 75 73 75 95 93 103 109 112 99 120 110 114 117 118 121 118 69 106 100 109
54 76 82 95 93 96 99 98 101 106 100 101 99 96 85 92 89 88 88 89 89 87 88 86 84 78 76 79 107 106 116 117 113 120 114 121 120 120 127 109 113 103 107 103
39 37 34 37 50 83 86 88 43 102 104 105 104 97 93 94 92 91 86 87 87 86 86 90 84 78 75 77 92 113 106 110 128 117 128 123 124 116 122 110 91 104 103 77
12 18 23 20 20 32 18 34 49 98 19 89 64 88 93 96 94 91 91 48 86 86 87 87 87 84 81 80 86 94 116 110 112 125 126 132 124 129 112 120 120 117 108 60
8 12 13 11 16 17 21 24 35 36 32 38 106 93 82 85 87 82 86 90 93 96 92 85 87 89 87 85 92 86 101 107 115 117 116 136 136 72 105 127 125 123 124 113
7 5 3 3 6 9 16 22 23 31 21 32 34 43 98 97 79 76 34 88 88 90 87 86 82 88 88 91 89 95 90 119 111 118 118 126 132 133 132 124 96 96 125 116
9 12 11 7 6 7 5 12 14 17 21 26 30 31 23 44 92 88 89 84 82 81 81 80 82 83 83 85 91 91 95 95 110 115 116 118 117 120 119 113 128 124 125 122
16 12 9 9 7 9 14 7 12 16 25 21 30 27 33 34 39 53 94 41 69 13 76 77 77 82 82 83 87 90 92 96 89 92 116 116 128 121 125 122 118 125 130 124
8 6 1 2 2 6 10 12 12 12 24 29 25 32 30 29 37 52 38 94 85 77 73 19 74 83 80 80 86 91 93 95 96 95 92 96 116 116 121 124 119 117 114 104
6 7 4 3 13 12 14 11 12 31 33 32 22 13 12 16 27 42 75 80 85 76 73 71 76 68 27 77 84 87 89 94 89 90 90 94 94 95 116 119 119 71 120 119
15 37 37 19 33 33 32 22 33 37 41 40 37 10 11 11 22 19 71 33 79 79 73 69 69 62 68 73 76 78 80 88 87 89 89 93 93 101 102 93 115 112 110 111
30 32 29 21 29 34 17 40 40 39 46 40 34 27 21 25 26 34 37 75 69 75 68 68 67 63 65 68 72 74 79 86 81 89 90 89 90 95 93 95 96 95 99 109
Wind_Direction
262 261 259 258 260 259 247 244 244 245 243 244 244 238 220 239 243 246 242 247 250 248 247 256 261 264 264 253 265 181 261 255 198 264 219 225 238 235 234 238 239 243 235 246
259 257 258 258 258 257 257 256 249 246 247 242 244 246 241 237 240 244 245 243 247 240 248 252 257 262 260 266 249 195 261 211 203 232 247 262 228 233 230 235 239 238 236 230
262 258 259 258 256 256 255 255 255 255 256 243 253 245 246 243 238 241 241 243 246 248 251 244 256 260 259 241 255 196 243 216 256 234 245 233 241 239 235 248 241 242 232 241
264 263 263 257 258 255 256 255 254 254 253 253 253 253 257 240 240 237 239 242 245 245 248 252 254 253 258 255 263 213 265 230 252 220 218 226 231 232 232 247 234 245 245 240
261 260 260 260 259 259 256 255 254 253 252 251 253 250 255 259 241 256 260 241 242 245 243 246 253 251 253 258 260 261 245 209 256 240 232 261 230 245 235 234 242 250 248 244
264 261 263 258 258 259 258 257 255 253 253 251 251 252 252 251 255 255 257 256 244 248 245 248 252 254 253 256 230 226 232 222 232 222 224 251 235 244 240 253 236 229 249 240
268 262 256 256 256 253 254 253 257 256 255 253 251 251 251 251 249 257 254 253 252 249 245 244 249 253 253 255 258 228 216 237 218 237 240 243 217 249 250 254 232 254 250 250
260 258 258 253 255 256 256 254 254 256 254 252 252 252 253 254 251 249 253 250 246 244 238 235 235 217 202 209 208 251 217 256 221 232 236 234 247 259 235 239 242 250 243 251
259 256 253 254 253 255 256 257 256 253 250 249 252 252 252 251 251 252 248 251 253 246 236 226 231 218 207 208 213 208 208 221 226 216 229 234 247 236 236 245 243 242 245 253
257 258 254 255 254 255 254 253 254 255 253 252 244 241 244 249 247 249 250 250 249 247 240 230 230 229 216 214 211 208 212 210 220 233 244 233 238 236 242 241 247 243 243 251
255 252 250 252 253 253 254 253 252 252 251 251 251 253 249 247 246 247 247 249 248 245 240 235 224 228 224 221 210 208 215 219 222 227 229 233 232 247 245 240 244 246 250 252
253 250 246 248 252 252 249 250 251 252 251 252 251 251 250 251 249 243 247 241 244 243 243 233 231 225 223 221 224 210 209 215 218 224 240 231 239 235 249 240 242 245 248 249
254 256 250 245 250 251 250 250 249 251 252 252 251 250 251 255 254 249 242 246 244 245 244 240 227 220 221 223 216 213 210 211 215 219 226 228 230 232 234 236 238 243 244 247
254 253 243 246 244 245 250 252 253 253 252 252 254 251 251 253 252 250 244 243 246 247 243 244 233 233 223 222 218 211 215 216 216 219 224 226 230 230 232 237 240 239 235 244
253 255 253 249 249 247 245 250 251 252 254 253 251 249 248 251 250 247 247 247 240 243 241 239 236 224 225 218 220 215 215 216 223 221 226 226 229 228 231 232 245 233 241 243
256 246 246 250 251 249 246 246 249 253 253 254 251 247 243 246 245 245 245 244 244 238 241 239 240 238 228 226 214 214 216 219 223 223 227 226 224 227 229 232 233 238 240 244
256 260 263 270 259 246 248 248 230 245 248 249 249 251 248 243 243 242 240 243 242 238 240 235 234 229 234 234 220 216 222 219 221 225 224 226 226 230 232 234 236 239 242 246
273 276 271 270 272 268 257 246 246 244 253 250 250 243 240 243 241 241 242 243 239 236 236 235 233 234 229 233 223 225 219 223 223 223 226 227 230 231 233 235 237 238 242 247
243 252 260 269 255 262 253 258 256 257 250 245 245 244 236 238 237 235 237 238 238 238 239 236 230 230 227 228 218 225 222 226 223 224 225 227 230 228 235 235 237 237 238 242
84 124 145 173 203 235 239 248 253 254 265 249 252 248 239 237 225 230 241 232 231 235 234 235 232 231 232 231 228 218 226 221 226 224 224 226 227 230 231 233 241 242 236 240
106 111 119 131 152 164 198 263 278 273 213 243 247 250 254 244 234 220 226 227 229 229 233 231 229 228 227 228 230 232 223 224 223 225 226 228 227 229 231 234 235 237 237 238
107 120 163 163 182 221 248 288 244 244 235 230 241 249 254 246 232 227 222 213 223 214 228 228 227 227 226 226 227 229 229 226 232 230 228 229 228 231 232 234 236 239 239 241
157 130 240 339 246 238 246 270 292 282 280 264 263 240 247 249 224 216 212 219 221 219 222 227 226 223 225 224 224 228 229 227 227 230 234 233 232 233 233 235 236 237 240 242
95 49 37 52 60 67 93 100 92 82 67 39 359 295 247 213 216 211 199 213 216 213 215 220 225 222 226 224 225 229 229 231 234 233 234 235 236 237 236 236 237 243 239 240
89 110 106 104 96 90 86 95 102 94 84 67 36 234 227 174 138 180 196 212 212 213 211 214 221 218 218 221 225 227 228 231 233 234 234 234 237 237 239 243 240 241 242 244
127 127 117 115 107 91 108 102 97 102 93 91 76 58 245 107 139 168 191 201 210 210 208 210 212 212 214 219 222 225 227 231 232 234 234 234 236 238 241 243 244 244 244 244